Tracking 31023 objects as of 19-Jul-2025
HD Live streaming from Space Station
objects crossing your sky now

NOAA 17 DEB

Track NOAA 17 DEB now!
10-day predictions


NORAD ID: 48725
Int'l Code: 2002-032BK
Perigee: 721.1 km
Apogee: 802.0 km
Inclination: 98.7 °
Period: 99.9 minutes
Semi major axis: 7132 km
RCS: Unknown
Launch date: June 24, 2002
Source: United States (US)
Launch site: AIR FORCE WESTERN TEST RANGE (AFWTR)

Note: This is SATELLITE DEBRIS
Your satellite tracking list
Your tracking list is empty




NASA's NSSDC Master Catalog

Two Line Element Set (TLE):
1 48725U 02032BJ  25200.57857151  .00006728  00000-0  20560-2 0  9999
2 48725  98.6982 138.4444 0056732 256.4779 103.0084 14.41243846224709
Source of the keplerian elements: AFSPC